{"data":{"norad_id":63088,"intl_designator":"2025-037M","name":"STARLINK-32912","alt_names":[],"object_type":"PAYLOAD","status":"ACTIVE","operator":null,"country":"US","launch_date":"2025-02-23","launch_site_code":"AFWTR","launch_vehicle":null,"mission":null,"orbit_class":"UNKNOWN","rcs_meters":null,"size_class":null,"mass_kg":null,"dimensions":null,"purposes":["comms"],"wikipedia_slug":null,"has_3d_model":false,"image_url":null,"decayed_at":null,"tle_current":{"epoch":"2026-05-25T02:43:04.577088Z","epoch_age_seconds":59248,"freshness":"FRESH","line1":"1 63088U 25037M   26145.11324742  .00003177  00000+0  27387-3 0  9991","line2":"2 63088  70.0005 161.6017 0003939 266.6811  93.3897 14.98337507 70154","mean_motion":14.98337507,"eccentricity":0.0003939,"inclination_deg":70.0005,"raan_deg":161.6017,"arg_perigee_deg":266.6811,"mean_anomaly_deg":93.3897,"bstar":0.00027387,"rev_number":7015,"period_min":96.106517608519,"perigee_km":569.29500442762,"apogee_km":574.77034809858,"semimajor_km":6950.1696762631,"source":"CELESTRAK","updated_at":"2026-05-25T13:38:19.879137Z"}}}